{"data":{"norad_id":87569,"epoch":"2026-05-23T07:58:37.726176Z","epoch_age_seconds":212915,"freshness":"STALE","line1":"1 87569U          26143.33238109 -.00000041  00000+0  40855-4 0  9991","line2":"2 87569 101.9963 331.9455 0055243 296.5310 244.4918 12.68546977578952","mean_motion":12.68546977,"eccentricity":0.0055243,"inclination_deg":101.9963,"raan_deg":331.9455,"arg_perigee_deg":296.531,"mean_anomaly_deg":244.4918,"bstar":4.0855e-5,"rev_number":57895,"period_min":113.51570151588,"perigee_km":1344.9628032509,"apogee_km":1430.7662477053,"semimajor_km":7766.0015254781,"source":"CELESTRAK","updated_at":"2026-05-25T13:38:11.673713Z"}}